Weather History for Ft Lauderdale, FL

Change the Weather History Date:

Tuesday, March 5, 2013

  Actual Average Record
Temperature  
Mean Temperature 63 °F 72 °F  
Max Temperature 74 °F 79 °F 87 °F (1953)
Min Temperature 52 °F 65 °F 35 °F (1930)
Degree Days  
Heating Degree Days 2 1  
Month to date heating degree days 24 5  
Since 1 July heating degree days 67 107  
Cooling Degree Days 0 8  
Month to date cooling degree days 0 36  
Year to date cooling degree days 457 392  
Growing Degree Days 13 (Base 50)    
Moisture  
Dew Point 52 °F    
Average Humidity 66    
Maximum Humidity 83    
Minimum Humidity 49    
Precipitation  
Precipitation 0.00 in 0.10 in 0.77 in (1932)
Month to date precipitation 0.02 0.41  
Year to date precipitation 3.14 7.00  
Snow  
Snow 0.00 in - - ()
Month to date snowfall 0.0  
Since 1 July snowfall 0.0  
Snow Depth 0.00 in    
Sea Level Pressure  
Sea Level Pressure 30.14 in    
Wind  
Wind Speed 6 mph (South)    
Max Wind Speed 17 mph    
Max Gust Speed 22 mph    
Visibility 10 miles    
Events      
T = Trace of Precipitation, MM = Missing Value Source: NWS Daily Summary

Daily Weather History Graph

Daily Weather History Graph

Search for Another Location

Airport:

Trip Planner

Search our weather history database for the weather conditions in past years. The results will help you decide how hot, cold, wet, or windy it might be!

Date:

Astronomy

Mar. 05, 2013 Rise Set
Actual Time 6:39 AM EST 6:24 PM EST
Civil Twilight 6:16 AM EST 6:47 PM EST
Nautical Twilight 5:50 AM EST 7:14 PM EST
Astronomical Twilight 5:23 AM EST 7:41 PM EST
Moon 1:25 AM EST (3/5) 12:26 PM EST (3/5)
Length of Visible Light 12h 30m
Length of Day
11h 44m
Last Quarter, 41% of the Moon is Illuminated
Mar 5
Last Quarter
Mar 11
New
Mar 19
First Quarter
Mar 27
Full
Apr 3
Last Quarter

Hourly Weather History & Observations

Time (EST) Temp. Dew Point Humidity Pressure Visibility Wind Dir Wind Speed Gust Speed Precip Events Conditions
12:53 AM 55.0 °F 39.9 °F 57% 30.17 in 10.0 mi Calm Calm - N/A   Partly Cloudy
2:53 AM 53.1 °F 44.1 °F 71% 30.14 in 10.0 mi NNW 3.5 mph - N/A   Clear
3:53 AM 54.0 °F 46.0 °F 75% 30.14 in 10.0 mi Calm Calm - N/A   Clear
4:53 AM 53.1 °F 46.0 °F 77% 30.14 in 10.0 mi Calm Calm - N/A   Clear
5:53 AM 55.0 °F 48.0 °F 77% 30.16 in 10.0 mi NNW 3.5 mph - N/A   Partly Cloudy
6:53 AM 54.0 °F 48.0 °F 80% 30.16 in 10.0 mi Calm Calm - N/A   Partly Cloudy
7:53 AM 59.0 °F 51.1 °F 75% 30.18 in 10.0 mi Calm Calm - N/A   Partly Cloudy
8:53 AM 68.0 °F 53.1 °F 59% 30.19 in 10.0 mi Calm Calm - N/A   Partly Cloudy
9:53 AM 70.0 °F 53.1 °F 55% 30.18 in 10.0 mi Variable 5.8 mph - N/A   Partly Cloudy
10:53 AM 71.1 °F 53.1 °F 53% 30.17 in 10.0 mi SSE 8.1 mph 16.1 mph N/A   Partly Cloudy
11:53 AM 72.0 °F 54.0 °F 53% 30.16 in 10.0 mi SSE 9.2 mph 17.3 mph N/A   Partly Cloudy
12:53 PM 73.0 °F 54.0 °F 51% 30.14 in 10.0 mi SSE 6.9 mph - N/A   Partly Cloudy
1:53 PM 73.0 °F 55.0 °F 53% 30.12 in 10.0 mi SE 12.7 mph 18.4 mph N/A   Partly Cloudy
2:53 PM 73.0 °F 55.0 °F 53% 30.10 in 10.0 mi SSE 15.0 mph 20.7 mph N/A   Partly Cloudy
3:53 PM 72.0 °F 53.1 °F 51% 30.10 in 10.0 mi SSE 12.7 mph - N/A   Partly Cloudy
4:53 PM 71.1 °F 54.0 °F 55% 30.10 in 10.0 mi SE 10.4 mph 19.6 mph N/A   Partly Cloudy
5:53 PM 70.0 °F 53.1 °F 55% 30.10 in 10.0 mi SSE 11.5 mph - N/A   Clear
6:53 PM 68.0 °F 53.1 °F 59% 30.11 in 9.0 mi South 5.8 mph - N/A   Partly Cloudy
7:53 PM 66.0 °F 54.0 °F 65% 30.12 in 10.0 mi SSW 4.6 mph - N/A   Partly Cloudy
8:53 PM 66.0 °F 54.0 °F 65% 30.13 in 10.0 mi SSW 6.9 mph - N/A   Partly Cloudy
9:53 PM 66.0 °F 55.0 °F 68% 30.12 in 10.0 mi SSW 5.8 mph - N/A   Clear
10:53 PM 64.0 °F 55.0 °F 73% 30.11 in 10.0 mi SW 5.8 mph - N/A   Clear
11:53 PM 64.0 °F 55.0 °F 73% 30.10 in 10.0 mi WSW 4.6 mph - N/A   Clear